This is the latest recevied weather packets stored in our database for station/object UB3APB-WY. If no packets are shown the sender has not sent any weather packets the latest 1 day(s).
| Time | Temp. | Humidity | Pressure | Rain* | Wind** | Luminosity | Snow |
|---|---|---|---|---|---|---|---|
| 1777967891 | 17.22° C | 76% | - | - | 0 m/s | - | - |
| 1777967585 | 16.11° C | 77% | - | - | 0 m/s | - | - |
| 1777967279 | 15.56° C | 80% | - | - | 0 m/s | - | - |
| 1777966973 | 16.67° C | 77% | - | - | 0 m/s | - | - |
| 1777966667 | 16.11° C | 80% | - | - | 0 m/s | - | - |
| 1777966361 | 16.11° C | 80% | - | - | 0 m/s | - | - |
| 1777966054 | 15.56° C | 83% | - | - | 0 m/s | - | - |
| 1777965748 | 15.56° C | 81% | - | - | 0 m/s | - | - |
| 1777965441 | 15° C | 81% | - | - | 0 m/s | - | - |
| 1777965135 | 15.56° C | 84% | - | - | 0 m/s | - | - |
| 1777964829 | 15° C | 83% | - | - | 0 m/s | - | - |
| 1777964522 | 15.56° C | 80% | - | - | 0 m/s | - | - |
| 1777964216 | 15.56° C | 87% | - | - | 0 m/s | - | - |
| 1777963910 | 14.44° C | 87% | - | - | 0 m/s | - | - |
| 1777963603 | 13.89° C | 93% | - | - | 0 m/s | - | - |
| 1777963297 | 13.33° C | 91% | - | - | 0 m/s | - | - |
| 1777962991 | 14.44° C | 92% | - | - | 0 m/s | - | - |
| 1777962685 | 14.44° C | 92% | - | - | 0 m/s | - | - |
| 1777962380 | 13.89° C | 94% | - | - | 0 m/s | - | - |
| 1777962073 | 13.89° C | 93% | - | - | 0 m/s | - | - |
| 1777961768 | 13.89° C | 95% | - | - | 0 m/s | - | - |
| 1777961461 | 12.22° C | 95% | - | - | 0 m/s | - | - |
| 1777961156 | 12.78° C | 96% | - | - | 0 m/s | - | - |
| 1777960850 | 12.78° C | 96% | - | - | 0 m/s | - | - |
| 1777960544 | 12.22° C | 95% | - | - | 0 m/s | - | - |
* Rain since midnight (hover to see other rain measurements)
** Current wind speed in m/s (hover to see current wind gust speed)